• In Sweden
  • List of Countries
  • For 7 days
  • Water Temperature
  • Satellite Maps
  • Weather Map
  • Weather Widgets
  • user-avatar
    Login

    Hourly Weather Rapovka

    Today, 18 June, Monday

    Time Temperature Precipitation Wind Pressure Humidity
    00:00 +15°C° 0 mm 1 mps 745 mmHg 88%
    01:00 +14°C° 0 mm 1 mps 745 mmHg 89%
    02:00 +14°C° 0 mm 1 mps 745 mmHg 91%
    03:00 +14°C° 0 mm 1 mps 745 mmHg 89%
    04:00 +15°C° 0 mm 1 mps 745 mmHg 87%
    05:00 +16°C° 0 mm 1 mps 745 mmHg 85%
    06:00 +19°C° 0 mm 1 mps 745 mmHg 78%
    07:00 +21°C° 0 mm 1 mps 745 mmHg 71%
    08:00 +23°C° 0 mm 1 mps 745 mmHg 64%
    09:00 +24°C° 0 mm 2 mps 745 mmHg 59%
    10:00 +25°C° 0 mm 2 mps 745 mmHg 54%
    11:00 +26°C° 0 mm 2 mps 744 mmHg 49%
    12:00 +26°C° 0 mm 2 mps 744 mmHg 49%
    13:00 +26°C° 0 mm 2 mps 744 mmHg 48%
    14:00 +27°C° 0 mm 2 mps 744 mmHg 48%
    15:00 +27°C° 0 mm 2 mps 744 mmHg 51%
    16:00 +26°C° 0 mm 2 mps 743 mmHg 55%
    17:00 +26°C° 0 mm 2 mps 743 mmHg 58%
    18:00 +24°C° 0 mm 2 mps 743 mmHg 65%
    19:00 +21°C° 0 mm 2 mps 743 mmHg 72%
    20:00 +20°C° 0 mm 1 mps 743 mmHg 79%
    21:00 +20°C° 0 mm 1 mps 743 mmHg 82%
    22:00 +19°C° 0 mm 1 mps 743 mmHg 84%
    23:00 +18°C° 0 mm 1 mps 743 mmHg 87%

    Tomorrow, 19 June, Tuesday

    Time Temperature Precipitation Wind Pressure Humidity
    00:00 +18°C° 0.2 mm 1 mps 743 mmHg 88%
    01:00 +18°C° 0.2 mm 1 mps 743 mmHg 89%
    02:00 +17°C° 0.2 mm 2 mps 743 mmHg 90%
    03:00 +17°C° 0.8 mm 2 mps 743 mmHg 92%
    04:00 +17°C° 0.8 mm 2 mps 743 mmHg 94%
    05:00 +17°C° 0.8 mm 2 mps 743 mmHg 96%
    06:00 +19°C° 0.3 mm 2 mps 743 mmHg 93%
    07:00 +20°C° 0.3 mm 2 mps 743 mmHg 89%
    08:00 +21°C° 0.3 mm 2 mps 743 mmHg 86%
    09:00 +22°C° 0.1 mm 3 mps 743 mmHg 77%
    10:00 +25°C° 0.1 mm 3 mps 742 mmHg 68%
    11:00 +26°C° 0.1 mm 3 mps 742 mmHg 58%
    12:00 +27°C° 0 mm 3 mps 742 mmHg 56%
    13:00 +27°C° 0 mm 3 mps 742 mmHg 54%
    14:00 +28°C° 0 mm 4 mps 741 mmHg 52%
    15:00 +27°C° 0.3 mm 3 mps 741 mmHg 60%
    16:00 +26°C° 0.3 mm 3 mps 741 mmHg 67%
    17:00 +25°C° 0.3 mm 3 mps 741 mmHg 75%
    18:00 +22°C° 0.1 mm 3 mps 741 mmHg 78%
    19:00 +21°C° 0.1 mm 3 mps 741 mmHg 81%
    20:00 +19°C° 0.1 mm 3 mps 741 mmHg 85%
    21:00 +18°C° 0 mm 3 mps 741 mmHg 85%
    22:00 +17°C° 0 mm 3 mps 741 mmHg 85%
    23:00 +16°C° 0 mm 3 mps 741 mmHg 86%

    Day after tomorrow, 20 June, Wednesday

    Time Temperature Precipitation Wind Pressure Humidity
    00:00 +16°C° 0 mm 3 mps 741 mmHg 87%
    01:00 +16°C° 0 mm 3 mps 742 mmHg 89%
    02:00 +14°C° 0 mm 3 mps 742 mmHg 90%
    03:00 +14°C° 0 mm 3 mps 742 mmHg 90%
    04:00 +16°C° 0 mm 3 mps 742 mmHg 89%
    05:00 +16°C° 0 mm 3 mps 742 mmHg 89%
    06:00 +17°C° 0 mm 3 mps 742 mmHg 83%
    07:00 +19°C° 0 mm 4 mps 742 mmHg 77%
    08:00 +20°C° 0 mm 4 mps 742 mmHg 71%
    09:00 +21°C° 0 mm 4 mps 742 mmHg 68%
    10:00 +22°C° 0 mm 5 mps 742 mmHg 64%
    11:00 +22°C° 0 mm 5 mps 742 mmHg 60%
    12:00 +23°C° 0 mm 5 mps 742 mmHg 57%
    13:00 +23°C° 0 mm 5 mps 742 mmHg 54%
    14:00 +25°C° 0 mm 5 mps 742 mmHg 51%
    15:00 +23°C° 0 mm 4 mps 742 mmHg 53%
    16:00 +23°C° 0 mm 4 mps 742 mmHg 54%
    17:00 +23°C° 0 mm 4 mps 742 mmHg 56%
    18:00 +21°C° 0 mm 3 mps 742 mmHg 63%
    19:00 +19°C° 0 mm 3 mps 742 mmHg 69%
    20:00 +18°C° 0 mm 2 mps 743 mmHg 76%
    21:00 +16°C° 0 mm 2 mps 743 mmHg 78%
    22:00 +15°C° 0 mm 2 mps 743 mmHg 81%
    23:00 +14°C° 0 mm 2 mps 743 mmHg 83%

    21 June, Thursday

    Time Temperature Precipitation Wind Pressure Humidity
    00:00 +14°C° 0 mm 2 mps 743 mmHg 85%
    01:00 +13°C° 0 mm 2 mps 744 mmHg 88%
    02:00 +12°C° 0 mm 2 mps 744 mmHg 90%
    03:00 +13°C° 0 mm 2 mps 744 mmHg 86%
    04:00 +13°C° 0 mm 2 mps 744 mmHg 82%
    05:00 +13°C° 0 mm 2 mps 744 mmHg 79%
    06:00 +14°C° 0 mm 3 mps 744 mmHg 71%
    07:00 +16°C° 0 mm 3 mps 744 mmHg 63%
    08:00 +18°C° 0 mm 3 mps 744 mmHg 55%
    09:00 +19°C° 0 mm 3 mps 744 mmHg 53%
    10:00 +20°C° 0 mm 3 mps 744 mmHg 52%
    11:00 +22°C° 0 mm 3 mps 744 mmHg 50%
    12:00 +22°C° 0 mm 3 mps 744 mmHg 50%
    13:00 +24°C° 0 mm 3 mps 744 mmHg 50%
    14:00 +25°C° 0 mm 3 mps 743 mmHg 50%
    15:00 +25°C° 0 mm 3 mps 743 mmHg 53%
    16:00 +25°C° 0 mm 3 mps 743 mmHg 56%
    17:00 +25°C° 0 mm 3 mps 743 mmHg 59%
    18:00 +22°C° 0 mm 3 mps 743 mmHg 66%
    19:00 +20°C° 0 mm 2 mps 743 mmHg 74%
    20:00 +19°C° 0 mm 2 mps 742 mmHg 82%
    21:00 +18°C° 0 mm 2 mps 742 mmHg 85%
    22:00 +17°C° 0 mm 2 mps 742 mmHg 89%
    23:00 +16°C° 0 mm 2 mps 742 mmHg 93%

    22 June, Friday

    Time Temperature Precipitation Wind Pressure Humidity
    00:00 +15°C° 0 mm 2 mps 742 mmHg 94%
    01:00 +15°C° 0 mm 2 mps 742 mmHg 95%
    02:00 +14°C° 0 mm 2 mps 742 mmHg 96%
    03:00 +15°C° 0 mm 2 mps 741 mmHg 93%
    04:00 +16°C° 0 mm 3 mps 741 mmHg 91%
    05:00 +16°C° 0 mm 3 mps 741 mmHg 88%
    06:00 +18°C° 0 mm 4 mps 740 mmHg 81%
    07:00 +20°C° 0 mm 4 mps 740 mmHg 74%
    08:00 +22°C° 0 mm 5 mps 740 mmHg 67%
    09:00 +23°C° 0 mm 5 mps 739 mmHg 63%
    10:00 +26°C° 0 mm 6 mps 739 mmHg 59%
    11:00 +27°C° 0 mm 6 mps 739 mmHg 55%
    12:00 +27°C° 0 mm 6 mps 738 mmHg 55%
    13:00 +28°C° 0 mm 6 mps 738 mmHg 54%
    14:00 +28°C° 0 mm 6 mps 737 mmHg 54%
    15:00 +28°C° 0 mm 6 mps 737 mmHg 56%
    16:00 +28°C° 0 mm 5 mps 737 mmHg 59%
    17:00 +27°C° 0 mm 5 mps 737 mmHg 61%
    18:00 +26°C° 0.1 mm 5 mps 737 mmHg 68%
    19:00 +23°C° 0.1 mm 4 mps 737 mmHg 74%
    20:00 +22°C° 0.1 mm 4 mps 736 mmHg 81%
    21:00 +21°C° 0.1 mm 4 mps 737 mmHg 85%
    22:00 +20°C° 0.1 mm 3 mps 737 mmHg 89%
    23:00 +20°C° 0.1 mm 3 mps 737 mmHg 93%

    23 June, Saturday

    Time Temperature Precipitation Wind Pressure Humidity
    00:00 +19°C° 0.3 mm 3 mps 737 mmHg 94%
    01:00 +18°C° 0.3 mm 3 mps 737 mmHg 95%
    02:00 +17°C° 0.3 mm 3 mps 737 mmHg 96%
    03:00 +16°C° 0.2 mm 3 mps 737 mmHg 95%
    04:00 +14°C° 0.2 mm 3 mps 738 mmHg 95%
    05:00 +13°C° 0.2 mm 3 mps 738 mmHg 94%
    06:00 +14°C° 0 mm 2 mps 739 mmHg 94%
    07:00 +14°C° 0 mm 2 mps 739 mmHg 93%
    08:00 +14°C° 0 mm 2 mps 740 mmHg 92%
    09:00 +14°C° 0 mm 2 mps 740 mmHg 90%
    10:00 +15°C° 0 mm 2 mps 740 mmHg 88%
    11:00 +15°C° 0 mm 2 mps 740 mmHg 86%
    12:00 +15°C° 0 mm 1 mps 740 mmHg 84%
    13:00 +16°C° 0 mm 1 mps 741 mmHg 83%
    14:00 +16°C° 0 mm 1 mps 741 mmHg 82%
    15:00 +16°C° 0 mm 1 mps 741 mmHg 82%
    16:00 +16°C° 0 mm 1 mps 741 mmHg 83%
    17:00 +16°C° 0 mm 1 mps 741 mmHg 84%
    18:00 +15°C° 0 mm 1 mps 741 mmHg 85%
    19:00 +15°C° 0 mm 1 mps 741 mmHg 86%
    20:00 +14°C° 0 mm 1 mps 741 mmHg 86%
    21:00 +14°C° 0 mm 1 mps 741 mmHg 87%
    22:00 +13°C° 0 mm 1 mps 741 mmHg 87%
    23:00 +13°C° 0 mm 1 mps 741 mmHg 87%
    Show more